Time,TemperatureF,DewpointF,PressureIn,WindDirection,WindDirectionDegrees,WindSpeedMPH,WindSpeedGustMPH,Humidity,HourlyPrecipIn,Conditions,Clouds,dailyrainin,SoftwareType,DateUTC
2013-07-11 00:00:00,75.3,72.5,29.69,NNW,342,1.0,3.0,91,0.00,,,0.00,VWS V14.01,2013-07-11 04:00:00,
2013-07-11 00:10:00,75.3,72.5,29.69,NNW,342,1.0,2.0,91,0.00,,,0.00,VWS V14.01,2013-07-11 04:10:00,
2013-07-11 00:20:00,75.1,72.6,29.69,NNW,342,0.0,2.0,92,0.00,,,0.00,VWS V14.01,2013-07-11 04:20:00,
2013-07-11 00:30:00,75.1,72.6,29.69,NNW,342,0.0,2.0,92,0.00,,,0.00,VWS V14.01,2013-07-11 04:30:00,
2013-07-11 00:40:00,75.1,72.6,29.69,NNW,342,0.0,2.0,92,0.00,,,0.00,VWS V14.01,2013-07-11 04:40:00,
2013-07-11 00:50:00,75.0,72.5,29.69,NNW,342,0.0,1.0,92,0.00,,,0.00,VWS V14.01,2013-07-11 04:50:00,
2013-07-11 01:00:00,75.0,72.5,29.68,NNW,342,1.0,2.0,92,0.00,,,0.00,VWS V14.01,2013-07-11 05:00:00,
2013-07-11 01:10:00,75.0,72.5,29.68,NNW,342,0.0,1.0,92,0.00,,,0.00,VWS V14.01,2013-07-11 05:10:00,
2013-07-11 01:20:00,75.0,72.8,29.68,NNW,342,0.0,1.0,93,0.00,,,0.00,VWS V14.01,2013-07-11 05:20:00,
2013-07-11 01:30:00,75.0,72.8,29.68,NNW,342,0.0,1.0,93,0.00,,,0.00,VWS V14.01,2013-07-11 05:30:00,
2013-07-11 01:40:00,75.1,72.9,29.68,NNW,342,0.0,1.0,93,0.00,,,0.00,VWS V14.01,2013-07-11 05:40:00,
2013-07-11 01:50:00,75.2,73.0,29.67,NNW,342,0.0,1.0,93,0.00,,,0.00,VWS V14.01,2013-07-11 05:50:00,
2013-07-11 02:00:00,75.2,73.0,29.67,NNW,342,0.0,1.0,93,0.00,,,0.00,VWS V14.01,2013-07-11 06:00:00,
2013-07-11 02:10:00,75.2,73.0,29.67,NNW,342,0.0,1.0,93,0.00,,,0.00,VWS V14.01,2013-07-11 06:10:00,
2013-07-11 02:20:00,75.2,72.7,29.68,NNW,342,1.0,3.0,92,0.00,,,0.00,VWS V14.01,2013-07-11 06:20:00,
2013-07-11 02:30:00,75.1,72.9,29.68,West,265,0.0,3.0,93,0.00,,,0.00,VWS V14.01,2013-07-11 06:30:00,
2013-07-11 02:40:00,74.9,72.7,29.68,WSW,256,2.0,3.0,93,0.00,,,0.00,VWS V14.01,2013-07-11 06:40:00,
2013-07-11 02:50:00,74.8,72.6,29.68,West,261,0.0,3.0,93,0.00,,,0.00,VWS V14.01,2013-07-11 06:50:00,
2013-07-11 03:00:00,74.7,72.6,29.68,West,261,1.0,2.0,93,0.00,,,0.00,VWS V14.01,2013-07-11 07:00:00,
2013-07-11 03:10:00,74.7,72.6,29.68,West,280,1.0,4.0,93,0.00,,,0.00,VWS V14.01,2013-07-11 07:10:00,
2013-07-11 03:20:00,74.6,72.4,29.68,WSW,255,1.0,3.0,93,0.00,,,0.00,VWS V14.01,2013-07-11 07:20:00,
2013-07-11 03:30:00,74.5,72.3,29.68,WSW,241,0.0,3.0,93,0.00,,,0.00,VWS V14.01,2013-07-11 07:30:00,
2013-07-11 03:40:00,74.5,72.7,29.68,SW,236,1.0,3.0,94,0.00,,,0.00,VWS V14.01,2013-07-11 07:40:00,
2013-07-11 03:50:00,74.5,72.7,29.68,SW,220,0.0,3.0,94,0.00,,,0.00,VWS V14.01,2013-07-11 07:50:00,
2013-07-11 04:00:00,74.5,72.7,29.68,West,265,1.0,3.0,94,0.00,,,0.00,VWS V14.01,2013-07-11 08:00:00,
2013-07-11 04:10:00,74.6,72.8,29.68,West,265,0.0,3.0,94,0.00,,,0.00,VWS V14.01,2013-07-11 08:10:00,
2013-07-11 04:20:00,74.8,73.0,29.67,West,265,1.0,2.0,94,0.00,,,0.00,VWS V14.01,2013-07-11 08:20:00,
2013-07-11 04:30:00,74.8,73.0,29.67,West,265,1.0,4.0,94,0.00,,,0.00,VWS V14.01,2013-07-11 08:30:00,
2013-07-11 04:40:00,74.9,73.1,29.67,West,265,0.0,3.0,94,0.00,,,0.00,VWS V14.01,2013-07-11 08:40:00,
2013-07-11 04:50:00,74.9,73.4,29.67,West,265,0.0,2.0,95,0.00,,,0.00,VWS V14.01,2013-07-11 08:50:00,
2013-07-11 05:00:00,75.1,73.6,29.67,West,265,0.0,1.0,95,0.00,,,0.00,VWS V14.01,2013-07-11 09:00:00,
2013-07-11 05:10:00,75.1,73.3,29.67,West,265,0.0,2.0,94,0.00,,,0.00,VWS V14.01,2013-07-11 09:10:00,
2013-07-11 05:20:00,74.9,72.7,29.68,West,277,0.0,3.0,93,0.00,,,0.00,VWS V14.01,2013-07-11 09:20:00,
2013-07-11 05:30:00,74.6,72.1,29.69,WNW,296,2.0,3.0,92,0.00,,,0.00,VWS V14.01,2013-07-11 09:30:00,
2013-07-11 05:40:00,74.2,71.7,29.69,NW,311,1.0,3.0,92,0.00,,,0.00,VWS V14.01,2013-07-11 09:40:00,
2013-07-11 05:50:00,73.9,71.8,29.69,NW,311,0.0,3.0,93,0.00,,,0.00,VWS V14.01,2013-07-11 09:50:00,
2013-07-11 06:00:00,73.7,71.6,29.69,NW,311,3.0,5.0,93,0.00,,,0.00,VWS V14.01,2013-07-11 10:00:00,
2013-07-11 06:10:00,73.6,71.8,29.69,NW,309,3.0,3.0,94,0.00,,,0.00,VWS V14.01,2013-07-11 10:10:00,
2013-07-11 06:20:00,73.7,71.9,29.69,NW,309,0.0,3.0,94,0.00,,,0.00,VWS V14.01,2013-07-11 10:20:00,
2013-07-11 06:30:00,73.8,72.0,29.70,NW,309,0.0,3.0,94,0.00,,,0.00,VWS V14.01,2013-07-11 10:30:00,
2013-07-11 06:40:00,73.9,72.4,29.70,NW,309,1.0,4.0,95,0.03,,,0.03,VWS V14.01,2013-07-11 10:40:00,
2013-07-11 06:50:00,73.6,72.4,29.70,NW,305,3.0,4.0,96,0.03,,,0.03,VWS V14.01,2013-07-11 10:50:00,
2013-07-11 07:00:00,73.3,72.1,29.70,WNW,286,2.0,3.0,96,0.03,,,0.03,VWS V14.01,2013-07-11 11:00:00,
2013-07-11 07:10:00,73.0,71.8,29.70,WSW,251,0.0,5.0,96,0.03,,,0.03,VWS V14.01,2013-07-11 11:10:00,
2013-07-11 07:20:00,72.9,71.7,29.71,WSW,257,0.0,2.0,96,0.04,,,0.04,VWS V14.01,2013-07-11 11:20:00,
2013-07-11 07:30:00,72.9,72.0,29.71,WSW,257,0.0,1.0,97,0.04,,,0.04,VWS V14.01,2013-07-11 11:30:00,
2013-07-11 07:40:00,72.9,72.0,29.71,WSW,258,0.0,2.0,97,0.04,,,0.04,VWS V14.01,2013-07-11 11:40:00,
2013-07-11 07:50:00,73.0,72.4,29.71,WSW,258,0.0,1.0,98,0.01,,,0.04,VWS V14.01,2013-07-11 11:50:00,
2013-07-11 08:00:00,73.2,72.6,29.71,WSW,257,0.0,2.0,98,0.01,,,0.04,VWS V14.01,2013-07-11 12:00:00,
2013-07-11 08:10:00,73.2,72.6,29.71,WSW,257,0.0,3.0,98,0.01,,,0.04,VWS V14.01,2013-07-11 12:10:00,
2013-07-11 08:20:00,73.2,72.6,29.70,WSW,257,1.0,2.0,98,0.01,,,0.04,VWS V14.01,2013-07-11 12:20:00,
2013-07-11 08:30:00,73.4,72.8,29.70,WSW,257,0.0,2.0,98,0.00,,,0.04,VWS V14.01,2013-07-11 12:30:00,
2013-07-11 08:40:00,73.8,73.2,29.70,WSW,257,1.0,3.0,98,0.00,,,0.04,VWS V14.01,2013-07-11 12:40:00,
2013-07-11 08:50:00,73.8,72.9,29.70,WSW,241,0.0,4.0,97,0.00,,,0.04,VWS V14.01,2013-07-11 12:50:00,
2013-07-11 09:10:00,74.0,73.1,29.71,SW,232,1.0,2.0,97,0.00,,,0.04,VWS V14.01,2013-07-11 13:10:00,
2013-07-11 09:20:00,74.3,73.7,29.71,SW,232,1.0,1.0,98,0.00,,,0.04,VWS V14.01,2013-07-11 13:20:00,
2013-07-11 09:30:00,74.5,73.6,29.71,West,268,1.0,3.0,97,0.00,,,0.04,VWS V14.01,2013-07-11 13:30:00,
2013-07-11 09:40:00,74.6,73.7,29.71,WSW,243,0.0,4.0,97,0.00,,,0.04,VWS V14.01,2013-07-11 13:40:00,
2013-07-11 09:50:00,74.6,73.1,29.71,West,260,0.0,3.0,95,0.00,,,0.04,VWS V14.01,2013-07-11 13:50:00,
2013-07-11 10:00:00,74.6,73.4,29.71,WSW,240,0.0,3.0,96,0.01,,,0.05,VWS V14.01,2013-07-11 14:00:00,
2013-07-11 10:10:00,74.4,73.5,29.71,WSW,239,1.0,3.0,97,0.02,,,0.06,VWS V14.01,2013-07-11 14:10:00,
2013-07-11 10:20:00,74.3,73.4,29.71,WSW,239,0.0,3.0,97,0.02,,,0.06,VWS V14.01,2013-07-11 14:20:00,
2013-07-11 10:30:00,74.5,73.9,29.71,WSW,239,0.0,2.0,98,0.02,,,0.06,VWS V14.01,2013-07-11 14:30:00,
2013-07-11 10:40:00,74.6,73.7,29.71,WSW,239,0.0,2.0,97,0.02,,,0.06,VWS V14.01,2013-07-11 14:40:00,
2013-07-11 10:50:00,74.7,74.1,29.71,WSW,239,1.0,2.0,98,0.02,,,0.06,VWS V14.01,2013-07-11 14:50:00,
2013-07-11 11:10:00,75.0,74.4,29.71,WSW,239,0.0,2.0,98,0.01,,,0.06,VWS V14.01,2013-07-11 15:10:00,
2013-07-11 11:20:00,75.3,74.7,29.72,WSW,239,1.0,2.0,98,0.00,,,0.06,VWS V14.01,2013-07-11 15:20:00,
2013-07-11 11:30:00,75.3,74.4,29.72,WSW,239,1.0,3.0,97,0.00,,,0.06,VWS V14.01,2013-07-11 15:30:00,
2013-07-11 11:40:00,75.4,74.5,29.72,WSW,239,1.0,3.0,97,0.00,,,0.06,VWS V14.01,2013-07-11 15:40:00,
2013-07-11 11:50:00,75.4,74.2,29.72,WSW,239,0.0,2.0,96,0.01,,,0.07,VWS V14.01,2013-07-11 15:50:00,
2013-07-11 12:00:00,75.6,74.4,29.72,WSW,239,0.0,2.0,96,0.01,,,0.07,VWS V14.01,2013-07-11 16:00:00,
2013-07-11 12:10:00,75.8,74.9,29.72,WSW,239,0.0,2.0,97,0.01,,,0.07,VWS V14.01,2013-07-11 16:10:00,
2013-07-11 12:20:00,75.8,74.3,29.72,WSW,239,1.0,3.0,95,0.01,,,0.07,VWS V14.01,2013-07-11 16:20:00,
2013-07-11 12:30:00,75.9,75.0,29.72,WSW,239,0.0,3.0,97,0.01,,,0.07,VWS V14.01,2013-07-11 16:30:00,
2013-07-11 12:50:00,76.3,75.1,29.71,WSW,239,0.0,2.0,96,0.01,,,0.07,VWS V14.01,2013-07-11 16:50:00,
2013-07-11 13:10:00,76.6,74.8,29.70,WSW,239,0.0,2.0,94,0.01,,,0.08,VWS V14.01,2013-07-11 17:10:00,
2013-07-11 13:20:00,76.6,74.8,29.71,WSW,239,0.0,1.0,94,0.01,,,0.08,VWS V14.01,2013-07-11 17:20:00,
2013-07-11 13:30:00,76.8,75.3,29.71,WSW,239,1.0,2.0,95,0.01,,,0.08,VWS V14.01,2013-07-11 17:30:00,
2013-07-11 13:40:00,76.8,74.9,29.71,WSW,239,1.0,1.0,94,0.01,,,0.08,VWS V14.01,2013-07-11 17:40:00,
2013-07-11 13:50:00,76.9,75.1,29.72,WSW,239,0.0,1.0,94,0.01,,,0.08,VWS V14.01,2013-07-11 17:50:00,
2013-07-11 14:00:00,77.2,75.3,29.71,WSW,239,1.0,2.0,94,0.01,,,0.08,VWS V14.01,2013-07-11 18:00:00,
2013-07-11 14:10:00,77.4,75.5,29.71,WSW,239,0.0,2.0,94,0.01,,,0.08,VWS V14.01,2013-07-11 18:10:00,
2013-07-11 14:20:00,77.6,75.1,29.70,WSW,239,1.0,3.0,92,0.00,,,0.08,VWS V14.01,2013-07-11 18:20:00,
2013-07-11 14:30:00,77.9,76.0,29.70,WSW,239,0.0,2.0,94,0.00,,,0.08,VWS V14.01,2013-07-11 18:30:00,
2013-07-11 14:40:00,78.0,75.8,29.70,WSW,239,0.0,2.0,93,0.00,,,0.08,VWS V14.01,2013-07-11 18:40:00,
2013-07-11 14:50:00,78.2,75.7,29.70,WSW,239,0.0,1.0,92,0.00,,,0.08,VWS V14.01,2013-07-11 18:50:00,
2013-07-11 15:00:00,78.2,76.0,29.70,WSW,239,0.0,2.0,93,0.00,,,0.08,VWS V14.01,2013-07-11 19:00:00,
2013-07-11 15:10:00,78.4,76.2,29.70,WSW,239,0.0,1.0,93,0.00,,,0.08,VWS V14.01,2013-07-11 19:10:00,
2013-07-11 15:20:00,78.4,76.2,29.70,WSW,239,0.0,2.0,93,0.00,,,0.08,VWS V14.01,2013-07-11 19:20:00,
2013-07-11 15:30:00,78.7,76.8,29.70,WSW,239,0.0,2.0,94,0.00,,,0.08,VWS V14.01,2013-07-11 19:30:00,
2013-07-11 15:40:00,78.9,76.1,29.70,WSW,239,0.0,2.0,91,0.00,,,0.08,VWS V14.01,2013-07-11 19:40:00,
2013-07-11 15:50:00,79.0,76.2,29.70,WSW,239,2.0,2.0,91,0.00,,,0.08,VWS V14.01,2013-07-11 19:50:00,
2013-07-11 16:00:00,79.1,74.9,29.71,WSW,239,0.0,3.0,87,0.00,,,0.08,VWS V14.01,2013-07-11 20:00:00,
2013-07-11 16:10:00,79.3,76.4,29.71,WSW,239,0.0,2.0,91,0.00,,,0.08,VWS V14.01,2013-07-11 20:10:00,
2013-07-11 16:30:00,79.5,76.3,29.70,WSW,239,0.0,1.0,90,0.00,,,0.08,VWS V14.01,2013-07-11 20:30:00,
2013-07-11 16:40:00,79.9,76.7,29.70,WSW,239,1.0,2.0,90,0.00,,,0.08,VWS V14.01,2013-07-11 20:40:00,
2013-07-11 16:50:00,80.1,76.2,29.70,WSW,239,0.0,1.0,88,0.00,,,0.08,VWS V14.01,2013-07-11 20:50:00,
2013-07-11 17:10:00,80.2,76.3,29.70,WSW,239,0.0,2.0,88,0.00,,,0.08,VWS V14.01,2013-07-11 21:10:00,
2013-07-11 17:20:00,80.3,76.1,29.70,WSW,239,0.0,2.0,87,0.00,,,0.08,VWS V14.01,2013-07-11 21:20:00,
2013-07-11 17:30:00,80.3,76.4,29.70,WSW,239,0.0,2.0,88,0.00,,,0.08,VWS V14.01,2013-07-11 21:30:00,
2013-07-11 17:40:00,80.2,76.3,29.70,WSW,239,0.0,1.0,88,0.00,,,0.08,VWS V14.01,2013-07-11 21:40:00,
2013-07-11 17:50:00,80.0,76.5,29.70,WSW,239,0.0,2.0,89,0.00,,,0.08,VWS V14.01,2013-07-11 21:50:00,
2013-07-11 18:10:00,80.0,75.8,29.70,WSW,239,1.0,1.0,87,0.00,,,0.08,VWS V14.01,2013-07-11 22:10:00,
2013-07-11 18:20:00,80.0,75.4,29.71,WSW,239,0.0,2.0,86,0.00,,,0.08,VWS V14.01,2013-07-11 22:20:00,
2013-07-11 18:30:00,80.2,74.9,29.71,WSW,239,1.0,2.0,84,0.00,,,0.08,VWS V14.01,2013-07-11 22:30:00,
2013-07-11 18:50:00,79.5,73.9,29.72,WSW,239,0.0,1.0,83,0.00,,,0.08,VWS V14.01,2013-07-11 22:50:00,
2013-07-11 19:00:00,79.0,74.1,29.73,WSW,239,0.0,1.0,85,0.00,,,0.08,VWS V14.01,2013-07-11 23:00:00,
2013-07-11 19:10:00,78.5,73.3,29.73,WSW,239,0.0,1.0,84,0.00,,,0.08,VWS V14.01,2013-07-11 23:10:00,
2013-07-11 19:20:00,78.1,73.6,29.73,WSW,239,0.0,0.0,86,0.00,,,0.08,VWS V14.01,2013-07-11 23:20:00,
2013-07-11 19:30:00,77.6,73.1,29.73,WSW,239,0.0,1.0,86,0.00,,,0.08,VWS V14.01,2013-07-11 23:30:00,
2013-07-11 19:50:00,76.0,72.5,29.73,WSW,239,0.0,1.0,89,0.00,,,0.08,VWS V14.01,2013-07-11 23:50:00,
2013-07-11 20:00:00,75.9,72.4,29.73,WSW,239,0.0,1.0,89,0.00,,,0.08,VWS V14.01,2013-07-12 00:00:00,
2013-07-11 20:10:00,75.4,71.9,29.73,WSW,239,0.0,0.0,89,0.00,,,0.08,VWS V14.01,2013-07-12 00:10:00,
2013-07-11 20:20:00,74.8,71.7,29.74,WSW,239,0.0,1.0,90,0.00,,,0.08,VWS V14.01,2013-07-12 00:20:00,
2013-07-11 20:30:00,74.4,71.6,29.74,WSW,239,0.0,1.0,91,0.00,,,0.08,VWS V14.01,2013-07-12 00:30:00,
2013-07-11 20:40:00,74.3,71.5,29.74,WSW,239,0.0,0.0,91,0.00,,,0.08,VWS V14.01,2013-07-12 00:40:00,
2013-07-11 20:50:00,73.6,70.8,29.74,WSW,239,1.0,1.0,91,0.00,,,0.08,VWS V14.01,2013-07-12 00:50:00,
2013-07-11 21:00:00,73.0,70.9,29.75,WSW,239,0.0,1.0,93,0.00,,,0.08,VWS V14.01,2013-07-12 01:00:00,
2013-07-11 21:10:00,72.7,70.9,29.75,WSW,239,0.0,1.0,94,0.00,,,0.08,VWS V14.01,2013-07-12 01:10:00,
2013-07-11 21:30:00,72.6,70.8,29.75,WSW,239,0.0,0.0,94,0.00,,,0.08,VWS V14.01,2013-07-12 01:30:00,
2013-07-11 21:40:00,72.5,70.7,29.75,WSW,239,0.0,1.0,94,0.00,,,0.08,VWS V14.01,2013-07-12 01:40:00,
2013-07-11 21:50:00,72.5,70.7,29.76,WSW,239,0.0,0.0,94,0.00,,,0.08,VWS V14.01,2013-07-12 01:50:00,
2013-07-11 22:00:00,72.3,70.2,29.76,WSW,239,0.0,1.0,93,0.00,,,0.08,VWS V14.01,2013-07-12 02:00:00,
2013-07-11 22:10:00,72.3,70.5,29.76,WSW,239,0.0,0.0,94,0.00,,,0.08,VWS V14.01,2013-07-12 02:10:00,
2013-07-11 22:20:00,72.3,70.5,29.77,WSW,239,0.0,0.0,94,0.00,,,0.08,VWS V14.01,2013-07-12 02:20:00,
2013-07-11 22:30:00,72.2,70.4,29.76,WSW,239,0.0,0.0,94,0.00,,,0.08,VWS V14.01,2013-07-12 02:30:00,
2013-07-11 22:40:00,72.2,70.4,29.76,WSW,239,0.0,1.0,94,0.00,,,0.08,VWS V14.01,2013-07-12 02:40:00,
2013-07-11 22:50:00,72.2,70.4,29.77,WSW,239,0.0,0.0,94,0.00,,,0.08,VWS V14.01,2013-07-12 02:50:00,
2013-07-11 23:10:00,72.1,70.3,29.77,WSW,239,0.0,1.0,94,0.00,,,0.08,VWS V14.01,2013-07-12 03:10:00,
2013-07-11 23:20:00,71.7,69.9,29.77,WSW,239,0.0,1.0,94,0.00,,,0.08,VWS V14.01,2013-07-12 03:20:00,
2013-07-11 23:30:00,71.6,70.1,29.76,WSW,239,0.0,0.0,95,0.00,,,0.08,VWS V14.01,2013-07-12 03:30:00,
2013-07-11 23:50:00,71.6,70.1,29.76,WSW,239,0.0,0.0,95,0.00,,,0.08,VWS V14.01,2013-07-12 03:50:00,